Location: St. Louis
(38.6270°N, 90.1994°W)
Time: 21:10:41
(UTC-06:00)

Courier 1B Rocket - Pass Details

Date: 01 December 2021
Orbit: 920 x 1202 km, 28.2° (Epoch: 21 January)

Event Time Altitude Azimuth Distance (km) Brightness Sun altitude
Rises 03:25:35 0° 259° (W) 3,554 - -41.3°
Reaches altitude 10° 03:28:35 10° 247° (WSW) 2,626 - -40.7°
Maximum altitude 03:33:38 25° 193° (SSW) 1,794 - -39.7°
Exits shadow 03:37:08 16° 151° (SSE) 2,272 7.1 -39.0°
Drops below altitude 10° 03:38:52 10° 140° (SE) 2,730 7.7 -38.7°
Sets 03:42:03 0° 128° (SE) 3,725 8.6 -38.0°
